Weather History for Pine Ridge, SD

Change the Weather History Date:

Monday, January 21, 2013

  Actual Average Record
Temperature  
Mean Temperature 17 °F 24 °F  
Max Temperature 23 °F 37 °F 61 °F (2009)
Min Temperature 10 °F 10 °F -11 °F (2008)
Degree Days  
Heating Degree Days 48 41  
Month to date heating degree days 928 876  
Since 1 July heating degree days 3731 3866  
Cooling Degree Days 0 0  
Month to date cooling degree days 0 0  
Year to date cooling degree days 0 0  
Moisture  
Dew Point 8 °F    
Average Humidity 75    
Maximum Humidity 83    
Minimum Humidity 67    
Precipitation  
Precipitation 0.00 in 0.01 in 0.13 in (2003)
Month to date precipitation 0.10 0.18  
Year to date precipitation 0.10 0.18  
Sea Level Pressure  
Sea Level Pressure 30.31 in    
Wind  
Wind Speed 5 mph (ENE)    
Max Wind Speed 12 mph    
Max Gust Speed 15 mph    
Visibility 10 miles    
Events      
T = Trace of Precipitation, MM = Missing Value Source: NWS Daily Summary

Daily Weather History Graph

Daily Weather History Graph

Search for Another Location

Airport:

Trip Planner

Search our weather history database for the weather conditions in past years. The results will help you decide how hot, cold, wet, or windy it might be!

Date:

Astronomy

Jan. 21, 2013 Rise Set
Actual Time 7:14 AM MST 4:48 PM MST
Civil Twilight 6:43 AM MST 5:19 PM MST
Nautical Twilight 6:09 AM MST 5:54 PM MST
Astronomical Twilight 5:35 AM MST 6:28 PM MST
Moon 12:29 PM MST (1/21) 2:45 AM MST (1/21)
Length of Visible Light 10h 35m
Length of Day
9h 33m
Waxing Gibbous, 75% of the Moon is Illuminated
Jan 21
Waxing Gibbous
Jan 26
Full
Feb 3
Last Quarter
Feb 10
New
Feb 17
First Quarter

Hourly Weather History & Observations

Time (MST) Temp. Windchill Dew Point Humidity Pressure Visibility Wind Dir Wind Speed Gust Speed Precip Events Conditions
12:52 AM 14.0 °F 5.1 °F 8.1 °F 77% 30.44 in 10.0 mi North 5.8 mph - N/A   Overcast
1:52 AM 14.0 °F 3.9 °F 6.1 °F 71% 30.44 in 10.0 mi NNE 6.9 mph - N/A   Overcast
2:52 AM 12.9 °F - 6.1 °F 74% 30.42 in 10.0 mi Calm Calm - N/A   Overcast
3:28 AM 12.2 °F - 6.8 °F 79% 30.25 in 10.0 mi Calm Calm - N/A   Overcast
3:52 AM 10.9 °F - 6.1 °F 81% 30.40 in 10.0 mi Calm Calm - N/A   Overcast
4:52 AM 10.9 °F 4.7 °F 6.1 °F 81% 30.37 in 10.0 mi South 3.5 mph - N/A   Mostly Cloudy
5:17 AM 10.4 °F - 5.0 °F 79% 30.21 in 10.0 mi Calm Calm - N/A   Mostly Cloudy
5:52 AM 10.9 °F 4.7 °F 6.1 °F 81% 30.38 in 10.0 mi ENE 3.5 mph - N/A   Overcast
6:34 AM 10.4 °F - 6.8 °F 85% 30.20 in 10.0 mi Calm Calm - N/A   Overcast
6:52 AM 12.0 °F - 6.1 °F 77% 30.36 in 10.0 mi Calm Calm - N/A   Overcast
7:52 AM 12.9 °F - 6.1 °F 74% 30.36 in 10.0 mi Calm Calm - N/A   Overcast
8:52 AM 14.0 °F 3.9 °F 6.1 °F 71% 30.38 in 10.0 mi East 6.9 mph - N/A   Overcast
9:52 AM 14.0 °F 5.1 °F 6.1 °F 71% 30.40 in 10.0 mi East 5.8 mph - N/A   Overcast
10:52 AM 15.1 °F 5.2 °F 7.0 °F 70% 30.40 in 10.0 mi ENE 6.9 mph - N/A   Overcast
11:52 AM 17.1 °F 8.7 °F 9.0 °F 71% 30.35 in 10.0 mi East 5.8 mph - N/A   Mostly Cloudy
12:02 PM 17.6 °F 9.3 °F 8.6 °F 68% 30.18 in 10.0 mi ENE 5.8 mph - N/A   Mostly Cloudy
12:52 PM 19.0 °F 12.3 °F 10.0 °F 68% 30.31 in 10.0 mi ENE 4.6 mph - N/A   Overcast
1:52 PM 19.9 °F 11.1 °F 10.9 °F 68% 30.28 in 10.0 mi ENE 6.9 mph - N/A   Mostly Cloudy
2:52 PM 21.9 °F 15.7 °F 12.0 °F 66% 30.26 in 10.0 mi ENE 4.6 mph - N/A   Mostly Cloudy
3:52 PM 21.0 °F 11.4 °F 12.9 °F 71% 30.26 in 10.0 mi ENE 8.1 mph - N/A   Clear
4:52 PM 19.0 °F 8.2 °F 12.0 °F 74% 30.27 in 10.0 mi ENE 9.2 mph - N/A   Partly Cloudy
6:52 PM 19.0 °F 10.0 °F 12.0 °F 74% 30.23 in 10.0 mi East 6.9 mph - N/A   Overcast
7:52 PM 19.0 °F 10.0 °F 12.0 °F 74% 30.25 in 10.0 mi East 6.9 mph - N/A   Overcast
9:52 PM 17.1 °F - 10.9 °F 77% 30.20 in 10.0 mi Calm Calm - N/A   Clear
10:52 PM 15.1 °F 5.2 °F 10.0 °F 80% 30.22 in 10.0 mi ENE 6.9 mph - N/A   Overcast
11:52 PM 15.1 °F 5.2 °F 10.0 °F 80% 30.21 in 10.0 mi East 6.9 mph - N/A   Mostly Cloudy